Temp_Advection
nan nan nan nan nan nan nan nan nan nan nan nan nan nan nan nan nan nan nan nan nan nan nan nan nan nan nan nan nan nan nan nan nan nan nan nan nan nan nan nan nan nan nan nan nan
nan -0 0 0 0 0 0 -0 -0 -0 -0 -0 0 -0 0 -0 -0 -0 0 0 -0 -0 -0 -0 -0 -0 0 -0 -0 -0 -0 -0 -0 -0 -0 -0 -0 -0 -0 -0 -0 -0 0 0 nan
nan -0 -0 0 0 -0 -0 -0 0 0 0 0 -0 -0 -0 -0 -0 0 -0 -0 -0 -0 -0 -0 0 0 -0 0 -0 -0 -0 -0 -0 -0 -0 -1 -1 -1 -0 -0 -0 -0 -0 0 nan
nan -0 -0 -0 -0 0 -0 -0 -0 0 0 0 -0 -0 -0 -0 0 0 -0 -0 -0 -0 -0 -0 0 -0 -0 0 -0 -0 -0 0 -0 -0 -0 -0 -0 -1 -1 -1 -0 -0 0 0 nan
nan 0 -0 -0 0 0 0 -0 -0 -0 -0 -0 0 -0 -0 0 0 0 -0 -0 -0 -0 -0 -0 -0 -1 -0 -0 -0 -0 -0 0 -0 -0 -0 -0 -1 -1 -0 -1 -0 -0 0 0 nan
nan -0 -0 -0 -0 0 0 0 -0 0 -0 -0 0 0 -0 -0 0 0 -0 -0 -0 -0 -0 -0 -0 -0 -0 -0 -0 -0 -0 -0 -0 -0 -0 -0 -0 -1 -1 -0 0 0 0 0 nan
nan -0 -0 -0 -0 -0 0 0 0 -0 -0 -0 0 0 0 -0 0 0 -0 -0 -0 0 0 -0 -0 -0 -1 -0 0 0 -0 -1 -0 0 0 -0 -1 -1 0 0 0 -0 0 0 nan
nan -0 -0 -0 -0 -0 -0 -0 0 -0 -0 -0 -0 -0 0 0 0 0 0 -0 -0 -0 -0 0 -0 -0 -0 -1 -0 -0 -0 -0 0 0 1 0 -2 -1 0 -0 0 0 0 0 nan
nan -0 -0 -0 -0 -0 -0 -0 -0 -0 -0 -0 -0 0 0 0 0 0 0 0 -0 -0 0 0 -0 -0 -0 0 -0 -0 -0 -1 -0 -0 0 0 -1 -1 0 0 -0 0 -0 0 nan
nan -0 -0 -0 -0 -0 -0 -0 -0 -0 -0 0 -0 -0 0 0 0 -0 0 0 0 0 0 -0 -0 -0 -0 0 0 -1 -0 -1 -1 -0 0 0 -1 -1 0 0 0 0 0 0 nan
nan -0 -0 -0 -0 -0 -0 -0 -0 -0 -0 -0 0 0 0 -0 0 0 0 0 -0 -0 -0 0 0 -0 -0 0 0 0 0 -1 -1 -1 0 -0 -1 -1 -0 0 -0 -0 0 0 nan
nan -1 -0 -0 -0 -0 -0 -0 -0 -0 0 0 0 0 -0 -0 0 -0 -0 -0 -0 -0 0 0 -0 0 0 0 -0 0 0 -1 -2 -0 1 0 -1 -2 -1 -0 0 0 0 0 nan
nan -1 -0 -0 -0 -0 -0 0 -0 -0 -0 0 0 -0 0 -0 -0 0 0 -0 -0 -0 -0 -0 -0 -0 0 0 0 -0 0 -0 -1 -1 -1 -0 -2 -2 -0 0 0 0 0 0 nan
nan -0 -0 -0 -0 -0 -0 -0 0 -0 0 -0 -0 0 0 -0 0 0 0 -0 -0 -0 -0 -0 0 0 -0 -0 1 -0 -1 0 1 0 -0 -0 -1 -2 -1 -1 0 0 0 0 nan
nan -0 -0 -0 0 0 -0 0 0 0 0 -0 -0 -0 -0 -0 0 -0 0 -0 -1 -0 0 -0 -0 0 -0 -0 0 -0 -0 0 1 1 -0 0 -1 -1 -1 -0 0 0 0 -0 nan
nan -0 -0 -0 -0 0 0 0 0 0 0 -0 -0 -0 -0 -0 -0 -0 -0 -0 -0 -0 -0 -0 0 0 -0 -0 -0 0 -0 0 0 0 -1 -0 -1 -1 -1 -0 -0 0 1 0 nan
nan -0 -0 0 -0 -0 0 0 -0 -0 0 -0 -0 -0 -0 -0 -0 -0 -0 -0 -0 -0 -0 -0 0 0 0 -1 -0 0 0 -0 -0 -0 -1 -0 0 -1 -1 0 0 -0 0 0 nan
nan 1 -0 -1 -0 0 -0 -0 -0 -0 0 -0 -0 -0 -0 0 0 -0 -0 -0 -0 0 0 0 -0 -0 -1 0 -0 0 0 0 -0 -1 -1 -0 -0 -1 -1 0 -0 1 1 1 nan
nan 1 -0 -1 -0 0 -0 -0 -1 -0 -0 -0 -0 -0 -0 -0 0 -0 -0 -0 0 0 -0 0 -0 -0 0 0 0 -0 0 0 0 -1 -1 -1 -1 -1 -0 -1 0 1 1 0 nan
nan 0 -0 -0 0 1 -0 -1 -0 -0 -0 -0 -0 -0 0 -0 -0 -0 -0 -0 0 -0 -0 0 -0 -0 0 0 0 -0 0 0 0 -0 -1 -1 -1 -0 -1 -0 -1 -0 -0 -0 nan
nan 0 -0 -0 1 0 -0 -1 -0 0 -0 -0 -0 0 0 0 -0 -0 0 0 0 0 0 0 0 -0 -0 -0 0 0 1 0 -0 -0 -0 -1 -2 0 0 0 -1 -2 -0 -0 nan
nan 0 0 1 0 -0 -1 -0 -0 -0 -0 -0 -0 -1 -1 0 0 -0 -0 0 0 0 -0 -0 0 -0 -1 -1 0 0 0 1 0 -0 0 -0 -3 -1 1 -1 -1 -1 -1 -0 nan
nan 0 0 1 -0 -0 -1 -1 0 0 -0 -0 -0 -0 -0 0 -0 -0 0 0 0 0 -0 0 0 -0 -1 0 0 -0 -0 0 1 1 0 -1 -2 -2 1 -1 1 1 -0 -0 nan
nan 0 -0 -0 -0 -1 -0 1 0 0 -1 -1 -0 0 0 -0 -0 0 0 0 0 0 0 -0 0 -0 -0 -1 0 0 -1 -0 1 0 -1 -1 -1 -1 0 -0 -0 0 -0 -0 nan
nan -0 0 0 -0 -0 0 -0 -0 -0 -0 -0 -0 -0 -0 -0 -0 0 -0 0 0 0 -0 -0 0 -0 -0 0 0 0 -0 0 -0 0 -0 -1 -0 0 -0 0 0 -0 -0 0 nan
nan 0 0 -0 -0 0 -0 -0 -1 -0 -0 -1 -1 -1 0 -1 -1 -0 0 -0 0 -0 -0 0 0 -0 -1 -1 0 0 -1 -0 -0 -0 0 0 -0 -0 0 1 0 -0 0 -0 nan
nan nan nan nan nan nan nan nan nan nan nan nan nan nan nan nan nan nan nan nan nan nan nan nan nan nan nan nan nan nan nan nan nan nan nan nan nan nan nan nan nan nan nan nan nan
Wind_Speed
6 6 6 7 8 9 9 10 12 13 14 14 13 13 13 10 7 8 9 8 12 15 14 13 10 11 5 4 5 3 4 6 8 7 7 6 11 14 14 15 17 20 21 19 19
5 7 8 9 9 10 11 11 12 13 14 14 13 13 11 8 4 7 7 10 12 14 13 14 13 11 2 2 2 3 4 6 6 10 12 16 17 19 17 20 23 22 22 22 21
6 7 8 9 9 10 10 11 12 13 14 13 12 12 10 6 2 2 7 10 12 13 13 11 10 7 4 4 4 2 4 8 11 13 15 20 22 21 21 23 26 22 24 19 19
7 8 9 9 10 11 11 12 12 12 12 12 11 10 7 4 2 3 7 10 11 13 12 12 10 8 4 5 4 6 9 10 10 14 19 20 24 28 27 37 29 29 30 30 28
8 10 11 11 11 11 11 12 12 12 13 12 10 8 5 3 1 3 7 10 11 12 11 12 10 10 6 7 9 12 10 10 15 22 23 26 28 28 36 34 32 31 30 31 31
13 12 11 11 11 12 12 12 12 12 13 13 9 7 5 3 3 3 7 9 10 8 8 8 6 8 7 8 7 9 16 22 19 20 21 21 25 27 36 22 20 24 26 26 28
11 12 13 13 13 12 11 11 11 12 13 12 9 5 2 2 5 4 8 9 9 7 5 6 5 5 10 9 7 13 14 14 11 7 14 16 20 15 16 13 22 22 26 28 29
9 9 10 12 13 12 10 11 11 12 13 11 7 4 2 5 6 5 7 7 9 8 6 7 4 5 4 10 7 7 8 8 4 11 13 4 19 15 23 19 24 28 25 26 28
8 9 9 9 11 11 10 11 12 14 10 5 3 1 1 4 3 6 7 6 8 6 7 4 4 4 4 7 7 5 9 19 17 8 11 7 23 18 19 29 40 39 39 40 39
12 12 9 9 10 9 9 11 12 8 5 5 1 2 3 1 5 7 9 6 4 7 6 2 4 6 6 3 7 16 20 20 21 9 22 24 29 30 32 30 36 36 34 34 34
12 13 12 10 9 7 7 7 6 4 6 6 4 4 3 6 8 6 5 4 4 4 5 2 4 8 9 8 12 16 18 22 22 22 17 18 26 31 35 30 29 26 24 25 29
16 16 11 10 9 6 5 3 3 6 8 8 10 10 10 7 3 5 4 3 3 8 7 5 11 7 6 9 11 15 19 22 21 14 18 22 31 29 25 14 15 16 17 19 23
16 18 14 10 7 5 3 3 6 8 6 4 4 3 2 5 3 2 4 2 6 8 7 9 12 13 8 12 14 15 18 21 22 24 21 18 23 17 18 22 11 7 10 16 21
15 17 16 10 7 3 3 5 7 8 3 5 3 2 3 2 3 3 4 2 3 6 8 10 3 7 11 13 13 12 11 19 23 18 10 9 14 17 17 12 15 8 16 19 23
14 14 15 10 8 4 5 5 7 4 4 4 4 4 3 5 1 3 5 3 7 9 3 8 7 12 14 8 5 10 16 21 25 19 13 15 8 8 19 18 4 11 18 22 29
16 12 14 13 8 7 5 4 4 1 7 3 4 4 4 6 3 2 3 4 5 7 10 20 15 11 10 11 12 16 18 23 7 2 5 8 10 16 16 17 17 12 20 28 37
17 15 12 11 5 6 3 2 3 5 2 4 3 5 5 4 4 6 5 6 5 4 4 11 8 4 8 9 10 4 15 8 3 6 10 11 18 19 24 17 17 14 27 39 41
22 19 13 13 8 6 4 4 8 3 4 3 2 4 5 4 4 4 5 7 10 11 7 4 5 6 10 6 8 15 5 6 9 14 21 20 9 11 21 19 12 26 36 44 35
18 19 17 17 9 9 6 6 5 4 2 5 3 5 5 4 4 4 7 6 2 11 5 6 5 6 11 9 3 3 5 10 9 18 14 10 17 21 15 15 20 28 28 33 32
17 21 23 17 11 14 6 12 9 2 2 3 6 7 6 5 5 4 3 4 3 9 8 4 9 5 3 6 11 13 9 5 4 8 15 12 21 11 18 18 20 20 28 31 28
14 10 7 14 15 10 6 9 11 9 6 6 7 7 7 7 9 6 6 4 5 5 8 7 6 6 12 5 14 8 7 6 4 5 6 12 14 16 12 20 18 22 35 28 23
13 5 7 15 9 6 7 5 3 10 10 8 5 10 14 7 7 6 8 6 5 7 4 6 6 11 18 20 6 7 12 11 4 8 12 12 18 11 14 16 19 29 30 21 12
7 8 7 23 6 10 6 11 15 9 9 6 8 10 4 9 7 13 7 2 10 7 3 4 5 8 10 4 4 6 10 13 14 11 19 13 13 19 19 18 27 24 12 12 7
7 3 8 22 14 7 12 13 10 11 19 18 13 11 7 9 11 9 7 5 8 13 5 1 8 12 11 18 18 22 22 17 15 9 17 18 25 25 24 17 20 25 11 6 5
10 4 7 4 11 12 5 3 14 7 14 8 12 16 12 11 15 18 17 17 11 8 6 5 9 12 19 22 22 23 22 20 16 19 18 26 25 25 19 16 17 23 9 2 8
6 4 4 6 11 10 10 6 14 13 6 10 19 16 17 23 20 13 9 8 8 8 8 6 7 11 17 17 11 16 20 19 18 18 17 16 22 17 20 24 17 18 4 4 9
8 12 9 5 7 7 10 7 12 23 25 28 24 14 20 22 27 30 23 16 11 8 9 6 4 6 7 10 18 11 2 7 12 13 10 13 20 16 16 14 16 20 12 3 6
Wind_Direction
346 347 350 346 345 347 347 352 353 355 356 355 354 357 356 359 22 36 28 8 360 357 5 355 356 353 6 2 2 330 256 283 299 288 296 297 284 288 295 274 284 265 263 268 282
331 333 336 336 341 343 344 349 349 352 354 355 354 352 348 355 45 35 8 2 359 2 10 4 358 358 341 342 343 283 280 320 341 308 298 296 292 293 296 288 275 278 270 269 274
322 324 325 327 331 333 337 341 345 349 350 352 349 347 346 356 51 25 348 356 358 3 6 349 347 348 331 337 7 335 274 335 292 296 298 294 290 288 284 273 266 273 279 277 272
313 313 316 318 324 325 331 336 338 340 343 344 345 344 348 1 343 280 342 356 358 5 6 2 358 353 323 335 337 296 257 285 290 297 295 287 293 285 277 266 278 273 271 276 272
313 316 319 320 321 320 324 330 332 335 336 337 336 339 350 328 212 300 348 354 357 6 6 3 360 347 337 324 309 253 286 295 288 291 287 287 278 276 274 273 271 272 269 267 267
318 312 312 316 320 320 322 326 330 330 328 327 331 336 2 273 222 311 342 348 349 0 356 7 354 332 296 296 291 321 297 295 294 288 290 281 279 280 267 269 271 271 270 268 267
320 320 325 328 328 325 321 320 323 323 324 327 326 331 345 294 221 302 331 334 336 342 345 340 337 330 321 297 321 292 297 298 269 287 292 310 281 247 295 274 269 268 273 273 271
317 322 332 335 333 330 322 319 319 317 319 320 320 335 296 240 230 299 315 315 328 327 326 323 324 298 268 311 293 288 274 306 344 253 296 297 284 300 306 288 279 284 273 278 279
316 320 328 335 339 333 323 320 316 313 319 324 329 117 194 220 250 285 299 304 301 313 317 306 310 290 287 307 310 215 297 308 311 219 291 255 293 289 292 286 284 281 276 277 276
319 320 327 335 340 334 328 326 319 323 335 2 359 276 232 211 247 284 302 293 290 297 292 282 275 276 256 290 307 309 306 303 299 314 303 293 284 290 294 287 281 282 280 277 275
321 328 332 334 337 337 337 343 352 309 302 257 284 276 269 264 277 293 291 304 286 272 293 351 295 291 296 314 298 298 296 297 296 294 295 291 291 289 296 294 284 285 285 290 286
339 335 330 332 331 336 354 1 329 310 304 273 256 257 250 250 276 242 268 262 264 286 308 257 284 335 311 290 289 291 297 290 293 306 300 307 292 293 291 285 290 295 303 306 307
333 345 336 328 328 324 4 329 328 340 274 267 230 226 201 190 256 227 186 272 284 289 275 271 279 319 276 295 298 292 287 294 302 312 309 303 292 306 316 302 295 303 310 314 312
318 335 351 329 325 336 321 328 336 344 310 270 204 185 179 189 241 206 199 269 255 302 315 278 284 290 294 291 296 293 268 310 303 305 304 1 294 305 290 286 273 296 310 319 321
293 311 332 328 298 298 300 319 336 12 319 201 155 180 200 225 328 175 216 226 265 278 297 269 292 301 295 284 303 271 304 304 293 283 293 282 242 286 298 304 298 294 322 326 324
267 287 309 326 302 285 283 309 341 341 248 177 149 179 211 204 211 136 206 235 283 284 250 262 277 283 249 301 280 286 298 300 291 254 250 279 232 289 308 323 298 305 315 316 320
252 259 274 296 278 283 256 325 280 226 78 185 198 194 233 204 213 202 209 221 245 299 299 312 271 236 240 285 310 274 315 305 269 257 279 318 306 285 293 297 322 336 326 323 316
259 246 268 274 287 249 198 236 237 250 231 83 151 180 229 174 203 217 268 269 216 244 293 307 313 207 174 268 297 302 299 288 301 309 299 304 271 291 308 324 345 318 327 324 315
255 238 244 268 260 209 216 227 237 228 38 171 160 231 204 205 242 233 233 275 273 200 222 306 263 235 256 285 246 355 258 294 283 276 278 271 283 315 341 347 326 323 325 321 316
241 240 242 264 257 200 230 235 246 305 309 236 236 191 262 191 218 210 252 158 228 209 242 318 296 293 294 262 245 224 334 298 278 303 312 310 301 326 333 339 324 330 339 328 319
227 230 218 239 241 195 230 219 262 251 252 242 280 262 246 278 241 259 273 188 208 182 217 280 252 276 295 255 302 270 256 222 263 263 293 313 308 312 337 336 346 346 327 323 320
213 219 202 200 178 205 229 248 259 249 234 262 285 279 276 259 254 259 253 226 183 177 222 217 289 287 286 288 302 264 272 286 288 300 294 285 284 320 327 2 2 324 309 323 337
218 232 208 205 231 215 267 254 256 234 228 217 244 231 255 254 259 234 252 276 208 213 260 159 238 301 304 164 167 240 272 282 280 278 273 288 286 313 330 349 332 312 329 336 39
203 212 183 201 242 270 234 238 236 223 250 249 258 255 231 236 238 272 257 255 220 226 233 271 252 250 266 288 304 297 297 295 287 272 280 276 292 313 327 343 329 325 341 343 90
223 231 203 216 221 249 231 244 242 231 230 255 258 233 224 251 248 252 258 259 228 220 205 240 266 267 274 284 289 285 286 290 277 267 269 287 303 313 349 339 324 326 354 51 119
235 186 218 291 241 225 221 233 248 237 223 235 238 254 238 246 248 274 243 241 241 179 202 223 265 299 290 281 273 285 282 277 272 274 278 294 300 348 335 329 330 340 42 349 125
249 251 242 239 249 222 229 253 260 251 257 253 260 261 262 265 271 273 284 269 272 224 211 222 259 300 270 326 307 282 259 268 283 288 286 307 312 328 328 333 348 341 4 45 148
Height
1558 1557 1556 1555 1553 1551 1550 1548 1547 1545 1543 1541 1539 1537 1535 1534 1533 1534 1533 1534 1531 1528 1525 1525 1525 1522 1521 1520 1519 1518 1511 1503 1499 1504 1500 1503 1504 1502 1502 1503 1501 1498 1495 1495 1493
1558 1558 1556 1555 1553 1552 1550 1548 1546 1544 1542 1541 1539 1537 1536 1535 1534 1535 1534 1532 1531 1528 1527 1526 1525 1523 1522 1521 1520 1516 1510 1503 1505 1505 1504 1503 1503 1502 1502 1499 1494 1493 1491 1492 1492
1558 1557 1556 1554 1553 1551 1549 1548 1545 1543 1542 1540 1539 1537 1536 1535 1537 1536 1534 1532 1531 1529 1528 1527 1526 1525 1522 1521 1520 1516 1510 1508 1508 1508 1508 1504 1502 1501 1499 1493 1491 1490 1488 1487 1487
1558 1557 1555 1553 1551 1550 1548 1547 1545 1543 1541 1540 1538 1537 1536 1536 1537 1535 1533 1532 1530 1529 1529 1529 1527 1525 1522 1520 1522 1519 1512 1513 1509 1508 1507 1505 1503 1498 1497 1483 1487 1485 1484 1483 1482
1557 1556 1554 1553 1551 1549 1547 1545 1544 1542 1541 1539 1538 1537 1536 1537 1537 1534 1533 1531 1530 1530 1530 1530 1529 1527 1522 1523 1522 1518 1514 1513 1509 1507 1505 1504 1499 1494 1484 1482 1481 1479 1479 1477 1475
1557 1555 1553 1551 1549 1548 1546 1545 1543 1541 1540 1539 1537 1536 1536 1538 1535 1534 1533 1532 1530 1530 1531 1530 1530 1529 1528 1525 1523 1517 1516 1511 1505 1502 1502 1498 1492 1489 1472 1475 1473 1473 1472 1471 1469
1555 1554 1553 1551 1549 1547 1545 1544 1542 1541 1539 1537 1536 1535 1536 1538 1535 1534 1534 1532 1531 1530 1531 1530 1529 1530 1528 1522 1521 1518 1514 1506 1500 1500 1499 1495 1482 1473 1468 1469 1467 1467 1467 1465 1463
1554 1553 1551 1550 1548 1546 1544 1542 1541 1539 1537 1536 1535 1535 1536 1534 1535 1534 1534 1533 1530 1530 1530 1528 1527 1528 1527 1524 1518 1513 1509 1503 1493 1495 1494 1499 1470 1468 1467 1465 1462 1462 1460 1459 1457
1553 1551 1550 1548 1547 1545 1544 1542 1539 1537 1535 1535 1535 1535 1536 1534 1534 1534 1533 1533 1531 1530 1528 1527 1528 1527 1525 1520 1515 1507 1508 1498 1491 1493 1490 1493 1470 1464 1466 1465 1456 1455 1454 1451 1447
1553 1551 1549 1547 1546 1544 1542 1541 1538 1536 1535 1535 1535 1539 1536 1535 1533 1532 1531 1531 1532 1531 1530 1528 1527 1523 1519 1519 1518 1510 1506 1501 1496 1488 1487 1481 1466 1454 1457 1455 1446 1443 1442 1440 1438
1552 1551 1550 1548 1545 1543 1543 1541 1543 1540 1536 1536 1535 1534 1535 1533 1532 1531 1531 1531 1531 1531 1526 1525 1526 1519 1511 1512 1512 1512 1509 1503 1497 1488 1482 1475 1462 1450 1443 1444 1436 1432 1431 1431 1429
1553 1551 1549 1547 1546 1544 1543 1544 1544 1544 1536 1530 1530 1531 1531 1531 1533 1531 1531 1533 1531 1525 1524 1524 1516 1511 1514 1514 1513 1509 1507 1501 1485 1479 1477 1469 1453 1445 1433 1430 1427 1428 1427 1427 1425
1553 1551 1549 1547 1545 1545 1544 1544 1543 1540 1539 1531 1529 1529 1530 1531 1531 1530 1531 1531 1528 1523 1520 1520 1510 1513 1514 1510 1508 1504 1502 1492 1486 1476 1474 1465 1447 1430 1425 1425 1423 1424 1424 1423 1422
1553 1552 1550 1547 1548 1545 1544 1544 1542 1541 1540 1534 1529 1529 1529 1529 1530 1529 1530 1532 1528 1524 1521 1515 1511 1513 1510 1508 1504 1504 1492 1486 1483 1484 1482 1479 1461 1436 1425 1417 1413 1417 1418 1418 1418
1550 1550 1550 1547 1546 1546 1546 1544 1542 1542 1538 1528 1527 1527 1528 1530 1529 1528 1529 1530 1525 1521 1526 1513 1509 1508 1507 1501 1500 1496 1490 1487 1482 1482 1484 1465 1472 1425 1418 1408 1410 1415 1415 1414 1414
1547 1548 1548 1547 1545 1545 1544 1544 1544 1546 1532 1528 1524 1525 1527 1526 1526 1526 1528 1529 1526 1523 1517 1511 1510 1511 1504 1500 1498 1493 1488 1478 1471 1477 1476 1443 1448 1420 1417 1412 1408 1407 1412 1413 1411
1543 1544 1545 1545 1546 1544 1545 1546 1546 1538 1522 1520 1519 1523 1521 1519 1521 1523 1522 1524 1519 1518 1506 1503 1497 1503 1505 1499 1488 1491 1487 1482 1465 1464 1448 1431 1433 1421 1409 1406 1406 1408 1411 1408 1400
1539 1540 1541 1543 1544 1544 1545 1546 1543 1515 1510 1517 1519 1520 1518 1516 1517 1518 1517 1513 1508 1514 1512 1510 1504 1499 1497 1497 1494 1490 1492 1497 1481 1463 1443 1439 1434 1415 1404 1402 1408 1408 1405 1401 1391
1535 1535 1537 1539 1542 1543 1546 1541 1524 1514 1512 1514 1519 1517 1513 1515 1517 1516 1509 1505 1505 1510 1512 1504 1496 1491 1492 1490 1494 1487 1494 1486 1484 1460 1447 1428 1412 1405 1402 1406 1407 1403 1400 1395 1386
1531 1532 1533 1537 1539 1541 1541 1527 1520 1518 1518 1516 1510 1505 1504 1508 1516 1512 1501 1498 1505 1507 1507 1503 1503 1487 1490 1490 1485 1489 1485 1488 1480 1469 1451 1427 1418 1409 1403 1406 1403 1399 1397 1391 1383
1528 1529 1528 1533 1537 1540 1531 1520 1518 1518 1521 1518 1509 1506 1507 1507 1508 1504 1500 1499 1502 1506 1508 1504 1502 1492 1487 1482 1478 1480 1483 1490 1487 1478 1464 1440 1418 1406 1405 1407 1401 1401 1400 1391 1382
1525 1527 1525 1529 1534 1529 1524 1517 1519 1517 1520 1520 1517 1511 1507 1506 1505 1505 1499 1496 1502 1504 1504 1501 1498 1494 1483 1473 1475 1476 1476 1474 1485 1469 1465 1459 1421 1400 1404 1406 1407 1406 1397 1390 1383
1524 1524 1523 1525 1520 1519 1519 1514 1515 1515 1515 1513 1512 1510 1507 1507 1509 1497 1498 1498 1501 1503 1500 1498 1496 1494 1471 1473 1474 1472 1467 1468 1469 1472 1462 1458 1420 1402 1400 1405 1407 1403 1395 1390 1386
1521 1519 1521 1519 1517 1514 1512 1513 1514 1514 1513 1511 1508 1508 1509 1506 1504 1497 1499 1498 1499 1500 1500 1503 1495 1493 1485 1472 1471 1469 1464 1465 1465 1466 1450 1435 1416 1404 1405 1407 1406 1399 1395 1391 1389
1514 1512 1512 1511 1513 1516 1515 1512 1508 1512 1512 1509 1507 1505 1504 1502 1496 1495 1495 1494 1496 1498 1499 1500 1490 1486 1479 1473 1470 1467 1462 1457 1459 1450 1448 1425 1422 1414 1412 1413 1407 1400 1394 1392 1392
1509 1510 1511 1510 1510 1512 1510 1506 1507 1507 1514 1505 1505 1502 1500 1495 1494 1491 1491 1492 1486 1494 1494 1495 1489 1484 1478 1466 1462 1461 1453 1450 1445 1440 1434 1430 1422 1417 1415 1413 1406 1400 1394 1396 1395
1509 1507 1508 1505 1505 1506 1503 1503 1502 1505 1502 1501 1500 1501 1494 1494 1494 1491 1488 1487 1486 1486 1490 1491 1490 1486 1473 1462 1460 1445 1439 1441 1438 1433 1431 1432 1422 1417 1417 1414 1409 1402 1399 1398 1397